Theta_e
319 322 322 325 327 324 323 323 323 326 324 322 320 322 322 322 321 325 325 329 331 334 338 338 341 338 341 339 340 339 337 338 338 339 337 338 338 337 334 336 337 338 337 336 332 331 330 328 326
320 321 323 323 324 322 321 322 325 323 322 321 321 321 322 322 322 323 327 329 330 332 337 341 341 338 338 339 339 337 338 338 338 338 336 336 335 334 335 335 336 336 335 333 330 326 324 323 322
321 320 324 323 322 322 321 323 322 322 322 321 322 322 322 322 322 324 327 330 330 331 336 339 341 341 338 338 337 334 335 337 337 337 336 334 332 333 332 332 334 334 332 331 326 319 317 316 316
321 322 321 321 322 321 320 321 321 322 322 320 321 322 322 321 322 323 326 330 330 331 335 339 339 341 340 338 337 334 331 333 336 336 335 333 331 331 331 331 332 331 330 328 322 317 314 311 308
320 321 321 322 321 320 320 320 321 322 322 321 320 321 321 320 320 320 327 330 331 332 333 336 337 338 339 339 338 335 333 333 335 336 334 332 331 330 330 328 329 330 328 323 317 312 308 306 303
321 320 322 322 320 320 320 321 321 322 322 321 320 321 321 319 318 320 325 329 331 331 333 333 331 334 336 336 339 337 334 334 336 335 332 331 330 330 329 327 328 326 322 318 318 312 306 302 300
321 322 322 322 321 320 320 320 321 321 321 320 320 320 320 320 318 319 323 327 331 332 334 334 335 333 333 333 334 335 334 335 336 334 332 330 329 328 327 324 325 322 319 319 318 313 307 300 299
321 321 321 321 320 320 320 320 320 320 319 318 319 319 320 321 317 320 323 326 330 332 333 334 335 336 337 337 334 333 333 335 336 332 330 328 328 327 324 322 321 319 318 319 316 312 305 300 299
320 321 321 321 320 319 319 318 319 318 318 319 319 319 319 317 318 321 323 325 328 331 333 333 334 334 335 335 336 336 335 336 333 332 329 328 327 325 322 319 317 318 319 316 314 310 303 299 298
321 322 320 320 319 318 318 318 318 318 318 318 319 319 318 316 317 320 322 324 327 329 331 332 333 333 333 333 334 336 335 334 332 331 329 326 327 324 320 318 316 317 317 314 313 307 299 298 300
321 320 319 319 319 318 317 317 317 317 318 317 318 318 319 318 318 318 319 320 322 325 328 330 332 332 331 332 331 331 332 331 332 330 329 326 326 322 318 317 315 317 316 312 310 302 297 299 300
320 319 319 319 319 317 318 317 317 317 317 317 318 318 318 318 318 317 317 318 319 321 325 327 329 330 330 330 330 329 329 330 331 330 327 325 324 320 317 316 315 316 313 311 308 302 299 298 298
319 318 317 318 318 318 318 317 317 317 317 317 317 317 317 317 317 316 317 317 318 319 321 324 326 327 328 329 329 327 328 329 328 328 325 325 322 318 315 314 315 315 312 310 306 300 298 298 297
317 317 317 316 316 316 316 317 316 316 316 316 316 316 316 316 316 316 316 316 316 317 319 321 324 324 325 327 328 327 327 326 326 325 325 324 320 317 314 313 314 313 310 307 302 300 298 298 297
316 315 315 316 316 316 315 316 316 316 316 316 315 316 316 316 315 315 315 315 316 315 316 318 320 322 323 325 326 326 326 326 325 324 324 322 319 316 313 311 311 310 308 304 300 299 299 298 297
315 316 316 317 315 315 314 315 316 316 315 315 314 315 316 316 316 315 315 315 314 315 315 316 317 319 321 322 324 325 325 324 324 323 322 321 317 315 311 310 309 308 305 301 299 298 298 298 297
316 317 318 318 317 314 315 315 315 315 315 315 316 316 315 315 315 315 314 314 314 313 313 314 314 316 318 320 321 322 322 322 321 321 320 318 316 314 310 307 307 306 302 299 298 298 298 298 297
319 319 318 318 317 316 316 316 316 316 316 316 316 315 315 315 315 313 312 312 312 312 312 312 312 312 314 316 318 319 320 319 320 319 318 317 314 312 309 306 305 303 300 298 298 298 297 298 297
316 316 317 316 316 316 317 316 315 315 315 315 316 316 315 315 313 311 310 310 310 310 310 310 310 310 310 313 314 316 317 317 317 317 316 315 313 310 308 305 303 302 299 298 297 297 297 298 297
315 315 316 316 317 316 316 315 314 314 316 316 316 315 315 313 312 310 308 307 306 306 306 307 307 308 308 310 311 313 314 315 315 314 314 313 312 309 307 304 302 301 299 298 297 297 297 297 296
316 316 316 316 315 314 314 315 316 317 319 315 313 313 312 311 309 308 305 304 303 303 303 304 305 305 306 306 308 309 310 308 309 310 311 311 310 308 306 304 302 301 299 298 298 297 297 297 296
315 315 314 313 313 315 313 316 317 319 319 313 312 310 309 308 306 305 303 301 301 301 301 302 302 303 302 303 305 306 307 306 306 306 307 308 307 306 305 304 302 301 299 298 298 297 296 297 296
314 312 312 312 313 314 315 316 319 320 316 313 311 309 307 305 304 303 301 300 299 299 299 300 299 300 301 302 302 303 304 304 304 305 304 303 304 303 303 303 302 301 299 298 298 297 296 297 297
311 311 313 314 314 320 320 320 320 316 314 311 309 307 306 304 303 302 300 299 298 297 297 297 297 297 298 299 299 301 302 302 302 302 302 302 302 302 301 301 301 300 299 298 297 297 296 296 297
310 313 323 325 323 324 316 322 319 316 311 310 308 307 305 303 302 300 300 299 298 297 296 296 296 295 295 296 297 297 298 299 300 300 301 301 301 300 299 299 299 299 299 298 297 297 296 296 296
314 316 323 328 326 326 321 322 321 313 309 309 308 306 304 302 301 299 298 297 297 296 295 295 295 294 293 294 294 295 296 296 297 298 298 299 299 299 299 299 298 298 298 297 297 296 296 295 295
316 316 316 324 322 323 318 317 317 311 310 309 307 305 302 301 299 299 297 296 295 294 294 293 293 292 292 292 292 293 293 294 294 295 295 296 296 297 297 297 298 297 297 296 296 296 296 295 295
309 309 316 316 322 321 317 317 317 313 311 309 306 303 301 299 298 297 296 295 294 293 293 292 292 291 290 290 291 291 291 292 292 293 293 293 293 294 294 295 296 296 296 296 295 295 295 295 294
312 311 310 312 317 321 321 317 314 312 311 308 303 300 299 298 297 296 295 294 293 292 291 291 290 289 289 289 289 289 289 290 290 289 289 290 291 292 292 293 293 294 295 295 295 295 294 294 294
313 314 314 316 316 316 317 317 315 308 306 302 301 299 297 295 294 293 293 292 291 290 289 289 289 288 287 287 288 288 287 288 288 288 287 286 286 287 289 291 291 292 293 294 294 294 293 293 293
Wind_Speed
4 5 6 6 5 4 5 3 4 3 2 4 3 6 9 9 8 4 3 8 6 18 20 26 23 22 19 17 16 15 13 13 13 13 11 9 9 8 7 8 7 6 6 6 3 3 3 2 1
4 5 6 4 5 5 6 4 0 5 6 4 4 6 7 7 2 1 4 11 9 17 19 23 25 23 21 18 17 17 16 13 13 12 11 7 8 7 7 7 7 6 5 4 1 1 0 1 1
3 4 4 3 3 5 5 2 3 4 4 4 4 2 7 3 1 2 2 11 13 18 18 20 25 23 22 21 18 17 17 15 14 12 10 7 5 5 5 7 7 6 4 3 3 3 3 3 4
4 6 4 5 6 6 4 7 6 7 2 3 3 8 3 3 2 2 2 10 13 17 19 21 25 25 23 22 20 19 17 16 15 13 11 7 6 5 5 7 9 7 6 6 4 2 2 3 4
5 3 5 5 7 4 5 6 6 6 3 2 3 3 4 4 4 3 5 10 12 15 17 19 25 29 26 23 22 20 19 18 17 17 11 11 10 8 6 6 6 6 7 5 3 3 2 2 1
4 3 5 6 4 4 3 2 4 6 3 2 4 9 5 7 6 6 7 11 12 15 17 17 23 28 27 26 23 22 20 20 20 19 14 12 12 11 9 7 9 8 6 5 5 4 3 2 1
6 5 9 8 10 7 2 1 5 3 5 7 2 6 3 7 6 6 8 10 13 16 17 17 18 25 26 27 28 26 23 22 22 20 18 13 14 13 11 9 9 8 6 7 7 5 4 2 2
4 3 6 5 5 9 2 2 3 6 8 4 2 5 5 9 6 5 7 10 13 16 19 19 18 20 20 21 26 26 26 26 24 25 20 16 15 15 14 13 12 9 9 8 8 7 5 3 3
2 5 8 10 8 4 3 5 6 3 10 9 7 12 10 2 3 6 7 11 14 17 20 20 21 21 21 21 21 24 25 25 25 24 19 18 15 13 14 13 12 11 11 10 9 8 7 3 1
6 8 10 7 9 9 10 9 12 11 13 16 15 18 16 9 10 12 14 15 18 20 21 22 22 23 23 22 22 24 26 26 22 20 20 21 17 15 14 14 16 15 14 11 10 10 6 5 2
6 10 13 12 12 14 13 14 15 13 18 17 16 9 12 10 15 17 18 20 19 20 20 23 23 23 24 25 23 22 26 30 24 25 21 25 18 17 18 15 17 16 17 12 12 11 8 7 6
10 14 15 16 9 7 14 17 14 14 23 20 21 20 18 16 16 18 20 19 19 20 22 23 25 25 27 26 26 24 24 27 25 26 26 25 22 19 18 17 17 17 16 13 12 11 10 9 8
15 15 17 15 14 14 17 21 20 21 22 24 22 19 18 16 19 20 19 19 18 21 22 25 26 28 28 28 25 25 25 26 25 24 28 26 24 23 21 21 20 19 16 16 14 12 12 10 9
11 11 17 20 19 15 17 21 16 25 16 19 16 16 16 16 18 16 17 18 19 22 24 24 27 29 28 29 29 25 25 24 26 25 28 30 25 24 22 21 20 19 18 17 16 15 13 12 11
10 13 17 22 21 13 5 15 14 19 13 15 16 17 16 13 15 14 16 17 18 19 20 23 25 26 28 29 28 28 26 26 25 26 27 28 28 24 23 22 22 20 20 18 17 15 14 13 12
10 15 15 12 2 3 8 16 16 9 10 13 18 21 20 22 21 21 22 18 16 16 16 19 23 26 28 29 27 26 25 25 25 24 25 26 28 25 25 23 23 22 21 21 19 18 16 13 12
14 16 19 15 13 2 11 13 12 20 20 22 25 23 20 20 18 17 16 15 13 12 14 16 18 20 23 24 24 23 23 24 23 23 24 24 27 28 25 25 25 25 25 24 23 21 20 18 14
18 20 20 15 14 15 18 23 20 20 23 24 23 20 18 15 11 14 13 10 8 6 5 9 12 14 17 18 20 20 21 21 22 22 22 22 25 27 27 24 24 26 26 24 23 22 20 18 18
22 22 24 22 20 23 24 24 20 19 24 25 19 13 6 9 13 21 22 23 20 18 13 6 4 8 10 13 16 18 21 20 21 22 22 21 22 25 27 24 25 28 28 27 26 22 22 17 17
18 22 23 21 18 16 20 23 25 23 21 15 12 10 3 10 17 19 23 25 27 25 23 18 11 4 5 9 11 13 13 17 17 18 21 23 24 24 26 27 25 27 27 27 27 25 20 15 22
20 18 21 24 18 18 18 19 10 10 17 5 10 13 15 16 16 16 20 25 26 27 26 24 19 12 5 3 5 6 8 7 10 14 18 20 22 25 27 29 27 28 31 27 28 29 26 21 23
18 16 14 15 12 9 7 9 16 18 13 15 19 15 14 15 16 15 18 25 28 26 25 24 21 17 13 8 4 3 7 9 10 12 12 15 19 22 24 28 30 30 32 30 33 33 31 24 19
13 6 10 10 12 16 13 9 6 13 5 14 15 13 13 14 15 15 17 20 22 24 24 22 22 24 20 14 9 5 5 8 11 11 7 12 15 20 23 26 28 30 31 36 35 36 39 32 26
8 9 14 16 8 8 12 11 5 5 10 9 14 13 12 12 13 14 17 18 21 21 22 24 20 23 26 21 16 11 8 8 9 10 10 10 12 16 21 26 28 29 29 31 35 38 38 38 33
7 8 6 5 6 7 4 7 9 8 8 10 10 10 10 11 12 12 14 17 17 18 18 17 20 26 26 23 21 18 15 10 9 10 10 11 12 14 18 20 25 29 30 30 30 32 34 39 36
7 4 4 6 10 15 14 8 8 10 12 11 10 10 9 10 9 9 11 10 13 15 14 14 19 21 23 21 20 19 18 17 15 12 12 13 12 13 15 17 22 27 30 30 31 32 33 32 36
4 6 5 2 3 5 9 17 16 13 11 11 9 7 7 7 7 8 9 12 12 13 17 19 19 20 19 19 18 19 18 19 17 15 14 13 13 14 16 17 19 24 27 30 31 31 33 34 34
3 4 3 4 5 11 14 19 14 13 12 9 7 6 6 7 9 10 12 14 15 16 15 15 17 18 17 16 15 14 21 21 19 17 18 17 16 16 16 17 19 20 24 28 31 32 32 32 33
6 6 5 5 8 11 15 13 9 10 8 4 5 6 7 8 9 9 9 11 12 12 13 13 15 15 18 20 19 19 18 17 19 22 23 22 20 18 17 17 19 20 23 25 29 31 31 33 33
16 18 17 12 13 10 14 18 8 13 5 4 3 4 3 4 6 8 11 11 14 15 18 19 19 19 19 19 18 16 17 17 17 19 20 24 27 27 23 20 18 20 22 24 28 30 30 33 33
Wind_Direction
330 304 299 269 262 228 272 84 340 324 294 32 314 304 336 313 312 4 153 178 162 178 176 181 183 184 182 184 183 185 176 177 171 177 178 173 162 157 157 151 152 152 125 110 107 115 134 159 115
291 296 252 284 260 270 72 68 39 27 6 326 291 266 271 300 356 137 186 177 169 176 178 180 186 188 189 188 187 184 179 189 185 189 190 192 181 186 179 174 166 146 129 130 174 174 154 264 236
272 269 268 275 288 339 356 67 5 327 315 271 286 247 309 314 83 13 85 168 164 174 179 186 192 190 193 196 196 193 192 191 196 194 194 206 233 210 202 198 187 188 169 172 247 274 275 271 269
262 201 215 257 298 321 285 320 338 307 125 219 297 274 186 292 347 63 101 169 172 177 180 190 199 192 197 199 204 204 201 201 204 202 200 240 226 195 193 197 194 202 214 237 257 248 234 260 266
238 244 262 253 285 281 294 287 305 283 292 220 212 274 272 141 161 155 152 175 182 185 187 195 201 197 200 206 208 205 206 206 203 206 209 224 226 214 215 208 189 186 208 226 225 232 222 182 242
237 289 251 272 331 310 301 5 266 264 274 182 243 267 281 123 164 193 183 190 192 193 194 198 205 200 203 206 208 208 208 206 206 207 213 217 221 223 222 206 205 200 201 194 170 186 165 165 116
283 269 280 295 288 289 257 135 234 301 275 264 265 273 289 177 179 173 191 197 198 199 198 198 199 204 208 210 213 213 212 207 205 207 210 218 224 225 222 212 208 197 188 173 170 163 160 163 121
280 269 272 250 286 287 173 206 283 274 296 38 295 259 268 97 151 179 196 201 205 202 203 200 201 203 207 212 216 217 213 208 207 215 217 213 223 224 226 212 213 197 184 180 171 172 172 186 157
275 254 264 273 266 281 148 266 149 307 280 255 234 275 337 87 170 193 207 211 210 211 209 206 205 205 207 208 215 213 210 207 213 217 213 216 218 223 218 215 216 192 186 180 177 178 188 201 205
229 247 274 279 285 279 297 271 290 285 271 270 259 245 253 235 239 233 225 225 216 215 213 212 210 209 208 210 212 212 212 211 214 217 220 217 214 216 211 211 205 195 197 185 179 195 196 174 196
222 251 275 291 283 292 284 286 279 260 271 271 281 289 290 268 243 249 250 242 236 226 218 214 213 213 211 210 210 214 217 219 220 221 215 216 212 211 207 203 204 195 204 190 194 206 187 195 180
265 254 270 286 296 286 273 287 277 266 266 284 287 292 292 284 260 255 258 256 249 241 226 219 214 212 213 211 210 211 211 212 215 215 215 212 207 205 202 198 194 195 201 191 194 203 202 202 199
248 273 278 282 280 269 280 271 274 272 277 281 283 283 275 263 266 265 258 254 248 242 231 223 215 214 212 212 213 214 213 210 211 212 211 203 203 203 198 197 194 194 196 197 200 202 200 199 201
312 292 282 278 273 265 268 274 283 273 271 280 282 282 273 266 266 264 252 252 240 239 232 225 219 216 213 212 212 213 214 214 211 211 204 206 205 204 199 198 197 197 196 196 197 199 196 197 201
281 292 294 282 269 256 257 271 244 268 267 275 288 285 290 278 269 260 261 265 254 239 233 227 223 219 217 216 216 216 214 213 213 212 209 208 207 206 200 199 198 198 200 197 193 193 194 196 198
271 271 275 286 67 160 195 276 292 338 321 287 281 286 287 285 285 275 285 270 262 256 243 230 221 218 219 218 218 218 218 215 215 213 212 212 209 208 202 199 200 198 200 198 194 192 191 191 196
247 269 279 294 302 31 212 281 293 311 296 287 281 287 292 293 295 299 304 298 285 261 253 244 237 227 224 226 224 222 222 222 219 218 216 216 212 209 205 202 201 199 200 197 194 193 194 186 188
282 289 298 284 286 279 273 276 293 295 294 279 280 290 292 295 333 1 351 348 338 318 285 263 243 234 232 228 226 229 227 224 226 225 222 219 215 213 209 207 204 202 200 198 195 196 192 190 184
280 286 285 288 292 290 288 294 297 287 279 283 287 305 306 49 52 51 40 35 38 39 32 5 270 236 226 226 225 223 225 223 225 227 227 224 219 215 213 211 204 205 206 203 201 192 188 187 181
279 280 283 285 292 306 298 291 291 286 276 283 295 312 66 98 69 55 40 35 30 27 30 29 17 329 241 233 237 238 238 237 236 234 230 223 218 215 214 212 210 209 206 205 202 194 185 187 181
267 276 287 296 311 299 292 286 256 278 298 28 38 83 79 65 64 50 37 33 33 28 26 31 29 24 4 279 257 250 255 262 255 240 239 230 224 218 215 216 214 210 211 208 205 199 193 188 196
282 298 313 307 311 295 19 292 297 275 266 80 94 71 73 68 61 50 41 36 29 25 25 31 37 46 39 17 329 298 272 273 273 259 249 240 233 228 225 220 217 214 213 209 209 206 204 198 196
282 338 311 298 280 285 271 251 291 285 183 114 91 74 63 58 54 55 46 44 39 30 29 31 35 38 42 39 18 344 322 302 300 294 258 244 239 236 233 230 228 223 217 214 208 207 207 206 203
314 287 276 262 270 263 277 252 282 48 108 115 97 81 63 49 49 49 49 46 39 34 34 32 32 39 37 33 26 13 347 327 311 306 289 272 248 240 240 235 232 231 229 223 216 215 212 208 210
222 272 307 281 212 269 60 333 264 343 84 120 110 90 74 66 52 41 35 34 36 37 35 32 29 38 35 30 31 18 2 355 342 326 300 282 270 253 249 247 236 232 232 232 227 221 216 214 213
193 253 221 278 288 294 319 261 252 128 117 111 111 98 82 63 54 46 39 33 36 29 33 35 39 39 32 24 24 24 18 8 353 338 316 305 295 283 274 261 249 240 237 235 232 227 224 222 220
161 223 276 215 220 269 250 267 266 140 142 135 119 95 70 63 52 51 53 44 42 37 33 30 32 34 29 24 22 18 13 15 8 358 345 330 312 305 299 283 266 254 246 239 233 232 229 224 222
244 359 203 168 256 260 262 279 270 208 178 154 121 72 37 27 31 31 30 32 30 31 26 28 32 32 27 25 19 7 9 7 4 3 3 353 337 320 306 293 278 267 256 248 241 235 233 230 228
232 249 228 289 247 259 271 268 304 67 116 130 56 31 19 15 15 17 18 25 29 26 21 22 25 26 21 18 17 18 12 3 357 356 354 352 349 340 320 303 289 276 265 257 249 242 238 232 230
274 268 266 255 250 227 251 251 283 25 88 55 7 1 25 26 23 19 15 10 18 17 14 13 12 15 15 8 6 8 4 2 359 353 349 350 346 345 340 323 298 285 273 263 257 248 243 239 236